GFSNW_850_spd_150.txt.gz
Wind_Speed
25 24 22 20 16 14 16 16 4 17 22 15 6 13 8 16 15 13 8 4 7 4 3 3 5 10 4 5 1 4 10 6 11 18 11 6 9 14 8 4 5 10 3 5
28 27 26 23 20 15 13 8 7 15 31 10 9 13 19 11 13 7 3 6 8 1 3 3 4 9 7 5 3 3 1 3 3 2 2 3 6 4 6 14 1 4 5 5
31 30 28 27 24 20 15 6 3 10 26 20 17 17 22 19 22 9 6 6 3 2 4 4 4 2 1 5 5 3 5 5 5 5 3 5 5 5 6 7 5 5 6 4
31 29 27 25 23 19 18 9 5 6 4 13 9 18 14 25 18 22 12 6 14 6 4 2 4 2 1 2 2 6 5 3 5 9 15 17 4 4 8 6 6 8 7 10
37 33 29 27 24 19 24 10 8 9 5 8 14 18 16 22 26 15 24 12 7 11 7 7 4 2 2 3 3 2 1 5 4 4 7 6 5 12 4 1 2 3 6 8
39 37 35 31 28 25 22 22 26 11 6 5 9 12 19 26 25 12 30 19 18 15 14 9 10 10 5 4 5 3 3 5 5 7 15 2 5 7 5 4 5 6 7 8
41 41 36 36 33 31 32 23 22 11 13 9 8 11 19 26 19 20 11 34 16 25 18 12 9 7 5 6 3 4 5 4 2 3 4 8 10 6 7 10 10 9 11 4
42 42 41 36 35 32 32 33 24 13 9 11 13 18 11 24 24 17 20 28 26 14 21 2 3 2 1 7 6 5 2 5 2 3 5 5 7 5 7 8 21 11 9 7
39 45 42 37 35 32 32 34 32 20 7 11 11 6 14 5 4 8 12 24 26 19 3 4 9 8 5 4 6 10 5 3 7 3 4 6 5 7 11 5 13 8 14 7
40 48 39 37 35 32 32 30 32 25 14 27 18 8 9 5 5 3 6 10 6 11 3 5 7 9 4 9 10 7 9 5 12 8 4 6 6 8 6 9 7 11 15 17
33 39 37 35 33 31 32 33 29 32 17 17 13 14 17 14 6 6 6 7 3 3 5 3 3 3 1 0 5 8 10 8 4 5 6 8 9 3 7 7 3 12 16 23
31 37 36 33 31 29 31 28 29 28 22 9 8 15 26 35 31 14 22 8 7 10 3 3 3 3 3 3 3 3 2 6 5 7 6 6 5 4 6 10 16 12 19 18
31 35 33 30 30 29 31 31 26 26 20 19 27 22 21 25 18 8 5 8 11 10 8 5 3 2 3 3 4 1 3 5 4 3 4 5 12 11 14 13 13 11 10 10
33 32 30 30 28 28 30 30 26 27 8 4 9 6 16 3 10 9 9 16 18 20 13 4 2 2 6 3 2 4 6 5 4 2 3 2 4 13 13 15 13 11 10 11
30 28 28 27 26 27 27 26 26 25 18 4 5 13 12 4 10 4 9 19 24 16 4 3 3 2 3 1 2 3 3 4 4 4 8 7 9 13 13 15 15 14 16 16
25 25 25 25 25 26 24 16 25 30 31 7 3 7 16 14 10 14 16 16 15 6 5 2 2 2 4 3 4 5 19 12 13 6 6 8 8 15 17 18 15 14 15 16
22 22 22 24 26 28 31 10 6 36 32 6 2 2 12 18 14 10 10 10 5 4 4 2 3 3 5 2 4 6 15 18 11 8 8 13 15 17 18 17 18 17 15 16
17 17 19 23 28 28 35 33 14 35 26 3 1 2 4 14 5 3 2 4 3 4 4 4 3 2 2 4 11 18 21 23 22 21 17 17 17 18 20 19 17 15 14 12
10 10 13 12 12 13 20 25 30 38 8 3 5 4 4 10 5 5 3 2 2 1 1 2 4 2 4 9 13 24 26 28 27 31 30 22 12 16 22 22 20 16 16 14
9 2 7 5 12 38 35 14 11 13 8 6 2 5 2 8 3 2 5 1 2 0 4 3 2 4 24 24 28 26 26 28 23 13 14 17 22 21 23 26 23 19 15 12
7 8 8 18 20 9 5 4 3 3 2 2 3 6 4 6 3 3 3 2 1 0 3 3 2 4 6 19 31 35 30 25 24 23 24 17 19 21 25 24 21 18 14 13
8 10 8 6 5 6 5 2 2 2 3 2 4 7 7 6 4 3 2 2 1 3 3 1 3 3 11 13 11 18 27 24 21 15 13 10 6 16 26 23 19 15 11 12
7 6 5 6 4 6 4 2 2 1 1 6 8 2 5 4 3 4 3 3 4 1 2 3 3 5 9 8 6 2 19 21 18 14 11 13 19 17 17 18 16 14 12 11
6 3 5 2 4 1 3 4 4 3 3 14 18 4 3 3 3 3 4 4 2 2 3 5 2 2 3 5 8 10 15 18 20 20 20 18 18 16 15 14 13 10 9 9
5 4 2 2 2 5 5 5 3 2 6 18 7 3 1 1 3 1 2 2 3 5 4 2 9 7 2 3 9 14 18 18 17 16 13 13 13 14 14 12 11 9 9 9
3 3 3 4 3 3 5 6 5 3 4 12 6 2 3 2 3 3 6 5 5 4 2 4 11 7 4 6 7 8 10 10 9 9 10 11 11 9 9 9 8 9 9 9
3 0 3 3 4 5 4 4 3 2 2 2 3 4 7 1 1 3 4 5 3 5 7 8 7 8 9 9 10 9 9 8 8 9 8 8 7 8 8 9 9 10 9 9

GFSNW_850_spd_153.txt.gz
Wind_Speed
26 23 22 18 15 14 12 6 4 10 19 14 4 13 11 7 11 1 6 6 4 4 6 3 3 7 4 3 2 6 10 3 4 10 5 4 3 3 11 4 5 4 1 5
29 26 24 21 18 15 14 5 9 11 25 9 12 7 18 15 6 7 5 5 6 4 5 3 5 2 6 7 3 2 3 2 0 3 3 2 6 12 11 6 3 5 5 5
28 27 24 23 21 18 15 4 3 10 18 14 4 11 20 15 20 15 9 3 6 4 3 3 3 2 1 3 1 4 10 4 5 5 3 2 2 5 13 13 3 5 6 5
33 30 27 26 24 21 19 11 5 5 4 11 12 15 7 20 15 18 23 11 8 6 4 2 5 3 2 3 2 5 9 3 2 4 5 4 3 9 9 11 16 7 8 13
32 31 29 27 25 22 25 12 6 6 6 10 9 16 14 22 24 14 14 16 18 9 10 5 5 3 3 4 1 4 1 4 6 3 6 5 3 10 18 7 4 6 3 8
36 34 33 29 27 29 22 24 15 9 6 3 8 7 10 13 20 20 23 19 16 12 18 13 19 11 4 3 3 0 2 4 3 6 7 3 3 14 12 8 5 7 11 9
38 37 36 34 34 36 33 27 15 8 6 5 7 8 11 16 17 16 14 25 17 39 28 19 15 4 6 6 5 5 4 5 3 2 4 6 6 6 17 13 7 10 5 6
37 39 37 38 37 38 39 32 23 12 4 10 13 16 14 19 21 22 24 25 27 28 15 6 3 2 4 7 6 9 6 3 3 4 5 6 10 5 6 7 10 11 12 8
38 37 39 39 39 39 41 39 34 21 2 10 16 8 11 6 7 5 10 21 28 16 3 7 9 6 5 5 4 11 6 3 5 3 5 7 4 7 11 5 11 9 17 8
39 38 39 40 41 42 42 38 37 29 12 22 13 6 3 5 5 6 4 13 9 22 7 5 7 9 4 6 8 6 9 4 12 6 4 6 6 6 12 6 7 7 12 11
37 36 38 42 42 45 43 38 30 35 15 24 13 19 31 18 14 5 8 6 4 3 6 5 2 3 3 3 4 7 10 6 6 4 8 9 8 3 11 8 6 5 9 17
40 37 33 37 47 43 39 29 34 29 23 15 14 28 36 32 27 22 13 10 10 10 3 4 2 3 2 2 3 6 7 6 5 8 5 5 7 6 8 10 6 8 12 16
34 38 34 43 41 36 38 37 27 28 23 26 32 36 36 28 25 24 12 14 15 12 8 4 2 2 3 3 4 3 4 2 1 3 6 7 9 3 5 7 11 14 15 20
27 32 28 33 35 32 36 35 30 26 9 5 14 15 24 28 24 31 37 40 22 18 14 3 3 3 8 4 3 5 5 5 6 4 3 1 7 7 7 10 16 17 18 16
30 29 31 31 30 31 30 29 29 29 24 3 7 21 22 15 26 23 25 33 27 15 4 2 3 4 3 1 1 3 6 6 5 5 9 8 7 15 16 16 17 16 17 16
27 28 29 28 29 28 26 15 26 27 28 8 4 9 17 20 15 15 9 10 10 4 7 3 4 4 4 3 3 6 17 18 12 6 12 16 10 13 20 22 21 19 17 17
27 26 25 26 27 29 31 7 5 26 27 6 4 3 13 21 19 10 5 3 4 4 4 2 3 2 4 2 3 5 15 19 16 12 10 9 12 11 16 19 20 19 18 16
23 23 23 22 23 25 29 14 5 9 22 8 4 2 4 13 5 3 2 3 4 5 2 1 1 2 2 3 7 13 13 10 16 18 15 13 12 16 20 22 21 20 19 18
21 22 23 22 20 17 24 30 22 10 12 4 3 1 0 6 5 4 3 3 3 3 2 1 3 1 4 8 9 20 28 23 35 32 26 22 20 16 22 26 25 25 23 20
20 22 13 8 21 23 8 9 9 13 9 7 3 5 2 6 2 2 4 1 2 2 3 3 1 3 20 24 24 28 28 31 31 22 22 26 23 22 18 27 30 28 24 20
14 7 5 13 23 16 5 6 6 4 3 6 4 6 4 5 3 3 2 3 2 2 2 3 2 3 4 8 15 18 17 22 23 24 23 18 15 17 25 23 28 29 23 20
6 5 20 16 5 5 4 1 3 5 5 4 3 4 6 5 4 4 2 2 2 3 5 2 3 4 4 11 17 21 18 11 16 18 16 17 14 15 15 23 25 25 19 14
2 1 4 3 1 4 4 4 2 1 2 6 6 2 4 4 4 4 2 2 4 3 1 3 5 1 4 9 14 15 6 7 13 14 13 12 9 9 12 16 21 18 15 15
4 5 5 3 3 2 0 0 1 1 2 12 13 4 3 3 3 2 4 3 1 2 3 5 2 3 1 5 7 6 1 7 10 11 11 11 12 15 16 14 15 15 15 15
5 3 2 2 2 2 2 4 4 5 5 18 6 5 3 1 3 1 3 2 3 5 5 3 4 4 1 1 4 5 7 9 11 12 14 16 17 16 16 16 14 12 10 9
3 3 3 1 3 4 2 4 2 4 10 11 4 2 3 1 3 2 5 6 5 4 3 3 9 6 2 3 6 7 9 11 11 9 8 8 9 10 11 11 10 9 7 7
3 2 1 3 3 4 2 1 2 2 3 2 3 4 6 2 1 3 4 5 4 4 4 8 8 3 4 4 5 7 7 6 4 4 7 7 8 9 8 9 9 9 8 8

GFSNW_850_spd_156.txt.gz
Wind_Speed
24 23 21 18 16 13 12 8 3 8 11 13 5 4 7 13 17 4 9 3 6 6 5 4 6 8 12 3 1 4 3 3 4 4 3 4 14 8 6 3 5 2 1 6
29 28 25 21 19 18 17 6 6 4 16 7 10 8 7 9 8 4 4 4 7 4 6 6 5 4 2 1 3 4 2 3 1 2 6 4 5 5 7 5 3 6 5 5
27 30 28 24 22 20 17 5 0 6 12 12 10 11 13 11 10 14 16 8 5 5 3 8 5 4 3 3 4 8 5 3 2 2 2 1 3 6 6 7 3 5 6 5
31 27 29 27 25 22 21 10 5 4 3 11 10 5 3 7 8 11 17 10 18 10 9 3 5 4 5 1 11 5 4 5 2 5 10 5 4 5 6 10 9 6 4 10
31 30 28 28 26 24 24 12 5 5 4 4 4 7 9 15 18 9 6 16 15 13 18 11 5 1 5 4 6 1 7 4 5 10 16 15 9 9 4 6 5 8 11 17
34 33 31 32 30 30 22 24 16 7 4 2 3 6 4 4 7 8 20 20 16 16 20 21 23 14 6 6 4 2 2 3 3 4 8 7 5 16 14 5 6 8 11 12
39 37 35 33 34 37 31 25 17 8 4 4 6 2 8 9 8 5 12 15 8 27 22 20 19 21 13 9 8 16 5 2 2 2 4 6 5 3 8 13 11 12 15 12
38 39 38 37 36 37 40 27 23 12 3 9 10 12 10 19 22 17 17 29 31 30 20 8 6 3 4 14 15 16 10 3 3 3 4 6 6 5 7 7 9 17 11 7
40 39 39 39 39 39 41 40 32 20 4 7 15 7 14 9 7 9 18 27 28 17 3 5 7 6 5 4 4 12 10 4 8 3 5 5 6 5 6 6 10 8 13 14
39 40 41 41 41 40 43 41 41 30 13 14 9 5 7 10 3 3 5 5 6 24 5 4 5 8 7 5 7 7 5 4 14 11 8 6 7 3 13 6 8 10 10 9
40 39 38 37 39 44 46 43 42 42 18 21 16 27 19 9 6 3 4 9 7 5 7 5 4 3 5 2 3 6 9 6 6 6 7 11 8 5 12 9 6 4 7 14
42 39 39 40 39 39 44 34 45 40 25 9 15 30 30 29 29 24 12 8 10 5 3 3 3 2 2 0 2 1 3 4 1 7 6 4 13 6 16 8 4 7 11 10
34 40 38 37 38 40 48 38 37 35 17 18 28 36 35 27 33 33 21 18 11 12 13 4 2 3 4 5 6 4 4 3 4 4 7 6 12 11 10 9 15 16 16 14
33 34 36 35 36 37 48 43 33 33 6 4 18 20 23 25 33 40 35 33 26 29 19 6 4 3 7 4 3 5 5 8 3 6 6 5 8 12 11 8 7 11 14 16
30 30 28 33 33 37 44 33 28 25 20 4 8 16 26 25 27 33 37 37 32 25 6 5 4 4 4 1 1 3 5 6 5 4 9 8 7 17 13 10 14 16 16 19
28 27 29 30 33 36 30 8 22 23 23 7 3 6 15 18 26 23 27 22 40 27 9 4 5 4 6 4 2 5 18 19 21 6 14 18 10 11 14 15 18 20 19 17
26 24 28 32 32 32 13 7 6 23 23 5 4 4 8 25 28 21 20 19 10 7 7 4 4 3 5 2 2 4 5 13 20 15 12 9 13 9 15 22 22 20 18 16
26 27 26 26 26 27 12 11 4 15 20 6 3 4 7 17 8 5 9 5 5 1 2 3 2 3 2 0 8 9 9 9 8 10 15 11 8 11 12 12 17 21 21 19
26 26 27 25 19 12 14 11 2 19 9 4 5 3 4 2 4 3 3 2 2 6 2 2 1 1 3 6 3 8 12 10 11 15 18 18 18 15 12 13 14 17 20 18
26 27 10 5 12 8 11 5 3 5 8 8 3 3 5 2 4 2 1 3 2 2 2 2 2 3 15 20 19 20 23 23 22 22 15 17 20 22 22 22 19 21 22 20
17 7 5 11 23 11 7 6 6 7 4 7 9 11 3 4 2 2 1 2 2 2 1 2 1 3 4 4 5 10 17 23 28 25 25 21 19 19 15 18 20 19 24 22
14 11 20 25 9 7 5 4 4 4 5 5 3 5 6 3 3 3 1 2 1 1 4 1 2 4 9 5 6 10 13 13 11 12 13 11 16 20 17 12 15 22 21 17
6 4 6 5 2 2 4 5 3 2 3 8 8 3 4 4 4 4 2 2 3 2 0 3 4 3 2 6 9 9 8 4 2 5 8 10 10 8 5 5 10 12 15 16
5 6 3 2 1 3 2 1 1 2 2 13 14 4 2 3 3 2 4 1 2 2 3 5 3 2 4 3 6 9 7 4 3 2 4 6 6 4 5 6 9 13 17 10
2 2 2 2 1 1 2 3 3 3 7 11 6 5 2 1 4 1 3 3 3 4 4 3 2 4 2 5 7 9 9 8 6 5 4 6 9 13 13 11 10 10 12 14
2 3 3 1 2 2 1 0 1 3 9 7 3 2 3 0 4 3 5 6 6 4 3 3 6 4 1 5 5 6 8 10 12 11 11 10 8 6 7 10 10 9 7 7
2 1 1 1 1 3 0 1 1 3 3 2 2 3 4 2 2 2 4 5 4 4 4 5 6 3 2 1 5 6 4 3 3 2 1 3 4 5 5 6 6 6 7 8

GFSNW_850_spd_159.txt.gz
Wind_Speed
23 24 22 15 17 18 16 11 2 8 11 7 5 4 6 10 9 4 4 6 6 7 5 4 3 11 7 2 4 5 3 3 4 7 2 5 7 7 9 5 6 5 6 5
20 24 26 22 21 23 20 8 6 6 15 5 10 10 9 3 5 9 6 4 10 9 4 4 3 6 7 5 2 3 1 1 3 3 2 2 6 2 7 5 2 6 5 3
28 23 25 26 24 23 20 7 1 5 10 11 7 12 13 8 13 5 8 5 6 7 4 4 4 6 7 22 1 5 6 3 4 2 3 1 2 6 6 2 3 6 5 3
24 28 24 26 27 26 23 10 5 4 3 6 10 5 5 12 12 10 14 4 17 15 11 10 5 7 6 9 9 2 4 4 5 6 8 6 3 8 7 5 5 5 3 12
28 26 28 27 28 26 26 12 5 5 3 3 3 9 18 13 11 4 6 8 4 4 12 17 16 11 1 3 9 12 4 3 5 6 14 13 7 14 13 12 13 14 15 22
33 31 29 29 29 35 14 19 12 6 3 4 4 4 3 3 3 4 7 6 8 13 16 20 19 20 23 16 11 5 2 4 3 10 5 7 9 16 14 11 14 16 13 18
37 35 32 30 31 38 27 23 14 7 3 5 7 4 3 5 7 6 14 14 6 2 21 28 21 16 17 14 12 12 5 2 3 4 4 8 1 3 11 15 17 16 14 11
38 38 36 33 34 36 36 26 21 12 3 11 12 12 11 12 11 12 16 30 26 24 15 5 5 4 5 13 16 16 13 5 3 5 5 6 10 4 6 7 8 15 18 14
38 40 41 37 35 36 38 36 29 20 5 8 16 10 13 6 4 4 12 22 21 11 3 5 6 8 7 6 4 18 16 15 8 5 8 6 0 4 3 4 12 8 12 14
43 39 38 41 39 38 40 39 35 25 13 15 13 6 8 9 4 4 5 6 6 12 4 7 7 6 6 6 7 6 5 7 14 13 10 7 9 4 9 9 5 7 12 9
46 42 39 38 40 40 42 42 39 38 18 18 20 23 14 10 9 5 2 4 3 4 6 7 6 5 5 4 3 7 11 7 6 8 9 15 10 5 13 8 7 7 6 10
38 43 39 39 40 40 43 35 41 38 26 9 26 31 30 32 27 16 10 6 5 2 3 3 5 4 4 5 4 1 6 7 4 6 5 3 8 14 21 15 9 6 9 12
34 42 42 38 40 39 43 42 29 40 26 20 24 27 30 28 33 33 12 10 11 5 6 4 3 5 3 6 5 4 5 5 4 0 7 12 21 26 21 12 15 13 14 11
31 34 41 40 37 36 37 43 39 38 13 6 9 17 31 34 33 32 33 39 29 22 16 8 4 4 7 3 2 6 3 10 6 6 7 8 13 19 23 14 13 11 12 15
29 29 33 39 37 36 36 46 44 43 27 4 5 15 24 21 22 25 29 37 29 23 7 5 8 6 9 3 1 4 6 7 5 6 9 6 6 11 16 12 13 8 8 9
26 25 32 29 31 35 34 5 32 38 25 3 2 8 10 9 19 28 29 28 28 25 12 7 11 27 6 4 3 5 22 19 25 7 10 14 18 13 13 15 12 11 10 10
20 24 26 25 33 35 16 9 15 28 19 3 3 3 5 9 15 21 18 22 16 15 7 7 13 7 10 2 3 3 8 13 12 17 9 7 9 5 4 10 10 13 14 13
25 22 36 38 34 28 20 12 17 28 11 4 2 4 3 3 6 8 16 12 18 10 6 4 3 4 5 4 5 10 6 4 4 7 7 12 8 4 2 3 3 8 10 13
37 38 33 29 19 8 13 16 17 24 7 4 4 2 3 5 3 6 7 8 2 5 2 2 2 2 3 6 4 5 2 1 7 13 13 11 12 11 9 6 4 6 10 15
36 30 10 6 10 11 10 4 6 8 8 6 3 4 3 2 3 2 2 3 2 3 3 2 2 3 13 11 9 14 13 11 10 11 9 10 15 12 11 14 15 13 13 14
13 5 6 17 17 8 5 4 3 3 3 7 7 14 6 9 4 2 1 1 1 1 0 1 2 3 2 3 3 5 8 11 16 17 20 20 15 13 9 7 9 14 17 17
6 12 20 19 6 2 3 4 4 5 4 4 3 5 9 4 6 1 1 2 2 1 1 1 2 2 2 3 7 11 13 13 14 13 9 5 7 10 8 9 10 9 12 12
12 5 7 6 5 4 6 6 3 2 3 6 6 3 6 5 3 2 1 2 1 0 2 2 2 4 4 8 9 8 8 7 5 3 1 2 3 3 3 4 7 5 3 8
4 5 2 3 3 3 3 2 2 2 3 8 10 3 1 2 3 2 3 1 2 2 2 3 2 2 2 3 5 5 3 4 3 4 1 0 0 2 3 3 5 6 12 17
4 4 4 3 1 1 1 4 4 5 7 11 5 4 2 1 4 2 3 3 2 2 3 2 1 2 1 2 4 6 5 5 8 9 8 9 10 10 11 10 8 8 11 11
3 3 2 1 1 2 2 3 3 2 11 5 2 2 2 1 4 3 3 6 5 3 3 4 3 3 2 1 3 6 9 12 15 14 13 12 10 9 9 10 10 11 10 10
3 1 4 5 0 2 1 1 1 3 4 1 1 2 2 2 1 1 3 4 3 3 4 5 8 8 5 5 8 9 5 7 8 7 5 4 6 7 7 8 9 8 8 8

GFSNW_850_spd_162.txt.gz
Wind_Speed
22 22 24 23 26 21 20 11 4 8 15 13 4 10 8 7 12 6 9 11 11 11 10 10 13 15 11 20 13 12 11 6 9 12 8 3 4 7 13 4 6 7 12 6
22 18 23 25 20 26 24 8 11 8 17 8 12 14 10 5 4 8 4 7 9 15 16 9 15 14 8 20 14 9 11 8 11 8 7 3 7 9 4 3 2 5 5 4
27 26 21 27 23 27 21 7 5 7 12 13 10 16 20 20 2 11 16 5 14 9 6 9 5 6 7 22 18 23 13 14 14 14 3 2 2 3 4 6 2 2 5 2
24 24 25 25 27 29 22 11 5 6 6 12 12 8 7 14 17 12 11 6 16 14 10 11 10 18 10 8 9 10 8 8 8 11 10 8 7 9 11 10 3 3 5 10
29 24 23 22 24 31 25 11 6 6 5 6 11 14 14 16 14 2 3 6 15 12 16 21 19 13 13 13 7 4 2 5 9 6 14 17 17 16 16 15 12 10 13 19
32 30 26 25 27 37 16 14 11 9 10 9 8 8 9 2 3 14 7 4 8 10 2 15 16 16 19 17 14 11 5 4 7 6 10 10 9 18 21 16 14 16 15 20
36 35 32 28 31 38 24 19 14 10 7 9 11 6 9 11 11 10 11 10 6 7 21 26 18 19 23 19 19 18 9 8 5 9 12 10 9 7 13 16 16 18 19 18
37 37 37 34 32 38 38 23 19 10 8 11 14 14 12 13 14 14 16 20 19 17 11 5 9 5 8 15 22 21 18 13 7 5 10 16 22 11 6 6 13 16 17 16
36 38 38 36 34 36 37 26 20 12 7 13 17 14 17 12 10 10 12 11 8 8 5 5 5 5 8 6 5 19 20 15 10 10 13 8 12 5 6 4 13 14 15 15
43 37 38 38 37 34 36 23 30 18 11 16 10 11 12 11 8 7 7 6 7 9 7 8 10 15 12 7 12 5 13 7 15 15 12 13 23 20 11 11 8 4 6 11
43 42 38 39 38 36 36 31 28 28 17 18 15 22 16 11 11 7 1 5 6 6 5 8 9 9 10 9 15 11 11 7 8 12 12 19 10 14 18 12 15 11 10 12
39 41 45 39 39 39 36 29 28 26 23 8 18 26 24 23 17 11 9 7 3 1 3 2 3 3 4 11 15 16 13 14 8 9 10 4 2 5 10 13 16 18 16 13
37 37 38 42 38 38 41 37 25 25 25 19 25 30 24 25 28 24 20 17 14 13 8 2 2 7 3 6 10 16 10 6 7 8 13 18 22 21 20 21 21 18 14 13
36 34 35 40 39 37 39 40 36 33 11 7 16 15 26 27 24 27 27 25 19 14 9 10 5 6 5 6 11 13 14 8 10 13 12 13 20 19 22 23 17 17 15 14
33 33 33 35 40 37 37 42 39 41 28 4 11 12 17 17 22 25 26 27 27 24 15 7 7 5 5 7 10 12 16 11 7 7 7 9 6 1 6 7 8 8 11 11
30 30 28 34 39 34 38 10 38 42 37 8 4 6 6 14 19 22 25 28 25 26 13 10 18 20 3 4 8 15 20 22 20 12 9 9 10 12 11 3 5 15 12 9
29 25 25 29 34 38 27 7 9 40 40 8 2 3 5 12 16 16 20 22 21 20 18 10 17 9 14 5 15 15 8 9 13 12 10 12 9 5 5 5 10 6 5 4
23 21 22 28 35 34 16 9 14 37 19 6 2 2 3 11 8 8 22 15 19 14 11 8 10 12 9 8 16 22 21 6 4 5 4 9 5 2 3 3 2 2 3 6
19 30 37 38 25 9 13 19 26 20 4 5 5 3 3 7 6 8 10 12 5 9 8 7 7 7 7 12 15 12 8 4 3 8 8 8 6 6 7 5 3 1 1 6
50 30 12 6 12 34 33 15 8 5 4 4 4 10 4 7 3 3 5 7 4 5 6 7 5 4 13 6 8 1 4 7 4 6 8 5 6 8 9 10 11 11 10 7
8 6 5 26 20 5 3 5 5 5 4 7 7 11 7 7 4 4 4 2 4 3 4 3 3 3 2 2 1 3 2 4 4 8 10 11 13 11 8 8 10 14 16 15
7 17 19 15 4 2 3 4 4 5 4 7 4 6 10 5 7 5 3 1 2 2 3 3 2 4 4 1 3 4 3 4 2 4 4 2 4 7 7 8 9 10 9 10
14 6 5 5 5 4 5 7 4 4 4 7 8 4 7 5 6 1 2 3 2 3 3 1 1 1 3 1 4 6 7 7 6 4 3 2 1 2 4 7 7 5 6 7
2 4 5 4 4 5 4 5 3 2 4 7 7 3 2 2 3 1 3 2 3 2 1 1 2 4 3 5 7 6 5 4 6 7 4 2 4 5 6 5 4 4 7 10
2 3 3 6 2 2 2 2 2 3 3 6 4 3 4 2 2 2 3 4 3 2 1 1 2 2 2 1 3 4 7 8 8 8 8 7 9 10 9 8 7 5 5 8
3 3 2 2 2 4 4 4 4 4 5 5 3 2 2 2 3 3 2 3 2 2 1 0 1 2 1 0 2 7 8 9 9 8 10 7 6 8 8 8 8 9 11 12
3 2 2 1 1 2 1 2 1 3 6 3 2 2 1 2 0 1 2 2 1 1 2 2 5 7 6 4 5 8 6 5 4 2 3 3 4 5 5 7 9 9 9 9